TimeMDT,TemperatureF,Dew PointF,Humidity,Sea Level PressureIn,VisibilityMPH,Wind Direction,Wind SpeedMPH,Gust SpeedMPH,PrecipitationIn,Events,Conditions,WindDirDegrees,DateUTC
12:15 AM,39.2,17.6,42,30.37,10.0,NNW,4.6,-,N/A,,Clear,340,2011-10-24 06:15:00
12:35 AM,37.4,15.8,41,30.37,10.0,North,4.6,-,N/A,,Clear,350,2011-10-24 06:35:00
12:55 AM,37.4,17.6,45,30.37,10.0,NNW,3.5,-,N/A,,Clear,340,2011-10-24 06:55:00
1:15 AM,37.4,17.6,45,30.37,10.0,North,4.6,-,N/A,,Clear,360,2011-10-24 07:15:00
1:35 AM,35.6,15.8,44,30.37,10.0,Calm,Calm,-,N/A,,Clear,0,2011-10-24 07:35:00
1:55 AM,37.4,17.6,45,30.37,10.0,North,4.6,-,N/A,,Clear,360,2011-10-24 07:55:00
2:15 AM,35.6,17.6,48,30.36,10.0,North,5.8,-,N/A,,Clear,10,2011-10-24 08:15:00
2:35 AM,33.8,17.6,52,30.36,10.0,NNE,8.1,-,N/A,,Clear,20,2011-10-24 08:35:00
2:55 AM,35.6,17.6,48,30.36,10.0,NNE,6.9,-,N/A,,Clear,20,2011-10-24 08:55:00
3:15 AM,35.6,17.6,48,30.36,10.0,North,5.8,-,N/A,,Clear,10,2011-10-24 09:15:00
3:35 AM,30.2,15.8,55,30.36,10.0,North,5.8,-,N/A,,Clear,350,2011-10-24 09:35:00
4:15 AM,30.2,15.8,55,30.35,10.0,North,5.8,-,N/A,,Clear,360,2011-10-24 10:15:00
4:35 AM,30.2,15.8,55,30.35,10.0,NNE,8.1,-,N/A,,Clear,20,2011-10-24 10:35:00
4:55 AM,30.2,8.6,40,30.35,10.0,NNE,9.2,-,N/A,,Clear,20,2011-10-24 10:55:00
5:15 AM,30.2,17.6,60,30.35,10.0,North,8.1,-,N/A,,Clear,10,2011-10-24 11:15:00
5:35 AM,30.2,17.6,60,30.35,10.0,NNE,8.1,-,N/A,,Clear,20,2011-10-24 11:35:00
5:55 AM,28.4,17.6,64,30.36,10.0,WNW,5.8,-,N/A,,Clear,300,2011-10-24 11:55:00
6:15 AM,30.2,17.6,60,30.36,10.0,North,4.6,-,N/A,,Clear,10,2011-10-24 12:15:00
6:35 AM,28.4,15.8,59,30.36,10.0,NNE,5.8,-,N/A,,Clear,20,2011-10-24 12:35:00
6:55 AM,30.2,17.6,60,30.36,10.0,Calm,Calm,-,N/A,,Clear,0,2011-10-24 12:55:00
7:15 AM,28.4,15.8,59,30.36,10.0,Calm,Calm,-,N/A,,Clear,0,2011-10-24 13:15:00
7:35 AM,33.8,19.4,56,30.35,10.0,Calm,Calm,-,N/A,,Clear,0,2011-10-24 13:35:00
7:55 AM,30.2,15.8,55,30.36,10.0,NNW,5.8,-,N/A,,Clear,340,2011-10-24 13:55:00
8:15 AM,35.6,19.4,52,30.36,10.0,North,4.6,-,N/A,,Clear,360,2011-10-24 14:15:00
8:35 AM,39.2,21.2,49,30.36,10.0,North,3.5,-,N/A,,Clear,360,2011-10-24 14:35:00
8:55 AM,42.8,21.2,42,30.36,10.0,North,4.6,-,N/A,,Clear,350,2011-10-24 14:55:00
9:15 AM,46.4,23.0,40,30.36,10.0,North,3.5,-,N/A,,Clear,350,2011-10-24 15:15:00
9:35 AM,48.2,23.0,37,30.36,10.0,Calm,Calm,-,N/A,,Clear,0,2011-10-24 15:35:00
9:55 AM,51.8,24.8,35,30.36,10.0,North,3.5,-,N/A,,Clear,350,2011-10-24 15:55:00
10:15 AM,55.4,24.8,31,30.35,10.0,Calm,Calm,-,N/A,,Clear,0,2011-10-24 16:15:00
10:35 AM,59.0,26.6,29,30.35,10.0,Calm,Calm,-,N/A,,Clear,0,2011-10-24 16:35:00
10:55 AM,60.8,24.8,25,30.34,10.0,SW,4.6,-,N/A,,Clear,220,2011-10-24 16:55:00
11:15 AM,62.6,26.6,26,30.34,10.0,WSW,6.9,-,N/A,,Clear,240,2011-10-24 17:15:00
11:35 AM,62.6,26.6,26,30.34,10.0,SW,10.4,-,N/A,,Clear,220,2011-10-24 17:35:00
11:55 AM,64.4,26.6,24,30.33,10.0,SW,9.2,17.3,N/A,,Clear,230,2011-10-24 17:55:00
12:15 PM,66.2,26.6,23,30.32,10.0,SW,12.7,16.1,N/A,,Clear,220,2011-10-24 18:15:00
12:35 PM,66.2,24.8,21,30.31,10.0,SW,16.1,20.7,N/A,,Clear,230,2011-10-24 18:35:00
12:55 PM,66.2,24.8,21,30.29,10.0,WSW,12.7,21.9,N/A,,Clear,250,2011-10-24 18:55:00
1:15 PM,68.0,24.8,20,30.28,10.0,SW,17.3,24.2,N/A,,Clear,220,2011-10-24 19:15:00
1:35 PM,68.0,24.8,20,30.27,10.0,SW,16.1,21.9,N/A,,Clear,230,2011-10-24 19:35:00
1:55 PM,68.0,24.8,20,30.26,10.0,WSW,11.5,-,N/A,,Clear,240,2011-10-24 19:55:00
2:15 PM,68.0,24.8,20,30.25,10.0,WSW,16.1,21.9,N/A,,Clear,250,2011-10-24 20:15:00
2:35 PM,69.8,24.8,18,30.25,10.0,WSW,11.5,21.9,N/A,,Clear,250,2011-10-24 20:35:00
2:55 PM,69.8,24.8,18,30.24,10.0,WSW,16.1,23.0,N/A,,Clear,250,2011-10-24 20:55:00
3:15 PM,69.8,24.8,18,30.23,10.0,WSW,16.1,23.0,N/A,,Clear,250,2011-10-24 21:15:00
3:35 PM,69.8,24.8,18,30.23,10.0,SW,17.3,21.9,N/A,,Clear,220,2011-10-24 21:35:00
3:55 PM,69.8,24.8,18,30.22,10.0,WSW,17.3,24.2,N/A,,Clear,250,2011-10-24 21:55:00
4:15 PM,69.8,24.8,18,30.21,10.0,WSW,19.6,24.2,N/A,,Clear,240,2011-10-24 22:15:00
4:35 PM,69.8,24.8,18,30.21,10.0,SW,20.7,25.3,N/A,,Clear,230,2011-10-24 22:35:00
4:55 PM,69.8,24.8,18,30.21,10.0,WSW,12.7,23.0,N/A,,Clear,250,2011-10-24 22:55:00
5:15 PM,68.0,24.8,20,30.21,10.0,WSW,15.0,19.6,N/A,,Clear,240,2011-10-24 23:15:00
5:35 PM,66.2,24.8,21,30.21,10.0,WSW,12.7,-,N/A,,Clear,240,2011-10-24 23:35:00
5:55 PM,64.4,24.8,22,30.21,10.0,WSW,8.1,-,N/A,,Clear,250,2011-10-24 23:55:00
6:15 PM,60.8,23.0,23,30.21,10.0,West,5.8,-,N/A,,Clear,270,2011-10-25 00:15:00
6:35 PM,57.2,21.2,25,30.22,10.0,WSW,8.1,-,N/A,,Clear,250,2011-10-25 00:35:00
6:55 PM,57.2,21.2,25,30.22,10.0,West,9.2,-,N/A,,Clear,270,2011-10-25 00:55:00
7:15 PM,55.4,21.2,26,30.22,10.0,West,6.9,-,N/A,,Clear,280,2011-10-25 01:15:00
7:35 PM,55.4,21.2,26,30.22,10.0,NW,4.6,-,N/A,,Clear,320,2011-10-25 01:35:00
7:55 PM,53.6,21.2,28,30.22,10.0,North,4.6,-,N/A,,Clear,350,2011-10-25 01:55:00
8:15 PM,53.6,21.2,28,30.22,10.0,North,3.5,-,N/A,,Clear,350,2011-10-25 02:15:00
8:35 PM,53.6,21.2,28,30.23,10.0,SW,4.6,-,N/A,,Clear,230,2011-10-25 02:35:00
8:55 PM,51.8,21.2,30,30.23,10.0,South,5.8,-,N/A,,Clear,190,2011-10-25 02:55:00
9:35 PM,51.8,21.2,30,30.23,10.0,Calm,Calm,-,N/A,,Clear,0,2011-10-25 03:35:00
9:55 PM,48.2,21.2,34,30.24,10.0,Calm,Calm,-,N/A,,Clear,0,2011-10-25 03:55:00
10:15 PM,46.4,23.0,40,30.24,10.0,Calm,Calm,-,N/A,,Clear,0,2011-10-25 04:15:00
10:35 PM,50.0,24.8,37,30.24,10.0,Calm,Calm,-,N/A,,Partly Cloudy,0,2011-10-25 04:35:00
10:55 PM,50.0,24.8,37,30.24,10.0,Calm,Calm,-,N/A,,Scattered Clouds,0,2011-10-25 04:55:00
11:15 PM,48.2,24.8,40,30.24,10.0,NNE,3.5,-,N/A,,Mostly Cloudy,30,2011-10-25 05:15:00
11:35 PM,50.0,24.8,37,30.24,10.0,Calm,Calm,-,N/A,,Overcast,0,2011-10-25 05:35:00
11:55 PM,46.4,24.8,43,30.24,10.0,Calm,Calm,-,N/A,,Mostly Cloudy,0,2011-10-25 05:55:00